| time (UTC) | temp C | wind direction | speed KPH | gust KPH | rain 1hr cm | rain 24hr cm | rain mn cm | humidity % | barometer mb |
| 20260906022504 | 27 | 57 | 0.0 | 3.2 | 0.00 | 0.00 | 0.00 | 77 | 1012.3 |
| 20260906021503 | 27 | 57 | 0.0 | 3.2 | 0.00 | 0.00 | 0.00 | 74 | 1012.3 |
| 20260906021007 | 27 | 59 | 0.0 | 0.0 | 0.00 | 0.00 | 0.00 | 73 | 1012.2 |
| 20260906020504 | 28 | 59 | 0.0 | 0.0 | 0.00 | 0.00 | 0.00 | 74 | 1012.2 |
| 20260906015504 | 28 | 59 | 0.0 | 3.2 | 0.00 | 0.00 | 0.00 | 73 | 1011.9 |
| 20260906015006 | 28 | 59 | 0.0 | 3.2 | 0.00 | 0.00 | 0.00 | 72 | 1011.9 |
| 20260906013503 | 28 | 61 | 0.0 | 0.0 | 0.00 | 0.00 | 0.00 | 72 | 1011.8 |
| 20260906013006 | 29 | 61 | 0.0 | 0.0 | 0.00 | 0.00 | 0.00 | 72 | 1011.8 |
| 20260906012504 | 29 | 61 | 0.0 | 0.0 | 0.00 | 0.00 | 0.00 | 70 | 1011.8 |
| 20260906012007 | 29 | 61 | 0.0 | 0.0 | 0.00 | 0.00 | 0.00 | 68 | 1011.8 |
| 20260906011503 | 30 | 61 | 0.0 | 0.0 | 0.00 | 0.00 | 0.00 | 67 | 1011.8 |
| 20260906011006 | 30 | 61 | 0.0 | 0.0 | 0.00 | 0.00 | 0.00 | 67 | 1011.5 |
| 20260906010503 | 30 | 61 | 0.0 | 1.6 | 0.00 | 0.00 | 0.00 | 66 | 1011.5 |
| 20260906010004 | 30 | 61 | 0.0 | 3.2 | 0.00 | 0.00 | 0.00 | 66 | 1011.5 |
| 20260906005504 | 31 | 61 | 0.0 | 3.2 | 0.00 | 0.00 | 0.00 | 64 | 1011.4 |
| 20260906005006 | 31 | 61 | 3.2 | 3.2 | 0.00 | 0.00 | 0.00 | 63 | 1011.4 |
| 20260906004503 | 31 | 61 | 3.2 | 4.8 | 0.00 | 0.00 | 0.00 | 63 | 1011.4 |
| 20260906003503 | 31 | 61 | 3.2 | 8.0 | 0.00 | 0.00 | 0.00 | 60 | 1011.4 |
| 20260906003007 | 32 | 61 | 3.2 | 8.0 | 0.00 | 0.00 | 0.00 | 60 | 1011.4 |
| 20260906002007 | 32 | 61 | 4.8 | 8.0 | 0.00 | 0.00 | 0.00 | 58 | 1011.5 |
| 20260906001503 | 32 | 61 | 4.8 | 8.0 | 0.00 | 0.00 | 0.00 | 58 | 1011.5 |
| 20260906001007 | 32 | 55 | 8.0 | 9.7 | 0.00 | 0.00 | 0.00 | 57 | 1011.5 |
| 20260906000504 | 32 | 51 | 8.0 | 12.9 | 0.00 | 0.00 | 0.00 | 56 | 1011.5 |
| 20260906000004 | 33 | 51 | 9.7 | 16.1 | 0.00 | 0.00 | 0.00 | 56 | 1011.5 |
| 20260905235503 | 33 | 49 | 9.7 | 16.1 | 0.00 | 0.00 | 0.00 | 55 | 1011.5 |
| 20260905234504 | 33 | 31 | 9.7 | 16.1 | 0.00 | 0.00 | 0.00 | 53 | 1011.5 |
| 20260905233503 | 34 | 49 | 9.7 | 19.3 | 0.00 | 0.00 | 0.00 | 52 | 1011.4 |
| 20260905233006 | 35 | 17 | 4.8 | 19.3 | 0.00 | 0.00 | 0.00 | 51 | 1011.4 |
| 20260905232504 | 35 | 47 | 4.8 | 9.7 | 0.00 | 0.00 | 0.00 | 49 | 1011.4 |
| 20260905231503 | 35 | 45 | 4.8 | 11.3 | 0.00 | 0.00 | 0.00 | 48 | 1011.4 |
| 20260905231007 | 35 | 53 | 8.0 | 11.3 | 0.00 | 0.00 | 0.00 | 47 | 1011.5 |
| 20260905230504 | 35 | 68 | 8.0 | 11.3 | 0.00 | 0.00 | 0.00 | 49 | 1011.5 |
| 20260905230003 | 36 | 36 | 8.0 | 11.3 | 0.00 | 0.00 | 0.00 | 47 | 1011.5 |
| 20260905225503 | 36 | 58 | 8.0 | 11.3 | 0.00 | 0.00 | 0.00 | 46 | 1011.4 |
| 20260905225006 | 36 | 35 | 8.0 | 11.3 | 0.00 | 0.00 | 0.00 | 46 | 1011.4 |
| 20260905224504 | 36 | 26 | 8.0 | 11.3 | 0.00 | 0.00 | 0.00 | 46 | 1011.4 |
| 20260905224007 | 36 | 24 | 8.0 | 11.3 | 0.00 | 0.00 | 0.00 | 47 | 1011.4 |
| 20260905223504 | 36 | 48 | 8.0 | 11.3 | 0.00 | 0.00 | 0.00 | 46 | 1011.4 |
| 20260905223007 | 36 | 28 | 8.0 | 11.3 | 0.00 | 0.00 | 0.00 | 46 | 1011.4 |
| 20260905222503 | 36 | 47 | 8.0 | 12.9 | 0.00 | 0.00 | 0.00 | 45 | 1011.5 |
| 20260905221504 | 36 | 33 | 8.0 | 16.1 | 0.00 | 0.00 | 0.00 | 44 | 1011.5 |
| 20260905221006 | 36 | 47 | 9.7 | 16.1 | 0.00 | 0.00 | 0.00 | 44 | 1011.4 |
| 20260905220503 | 36 | 10 | 11.3 | 19.3 | 0.00 | 0.00 | 0.00 | 44 | 1011.4 |
| 20260905220003 | 36 | 23 | 12.9 | 22.5 | 0.00 | 0.00 | 0.00 | 44 | 1011.4 |
| 20260905215504 | 36 | 42 | 14.5 | 24.1 | 0.00 | 0.00 | 0.00 | 44 | 1011.1 |
| 20260905215006 | 36 | 21 | 14.5 | 24.1 | 0.00 | 0.00 | 0.00 | 44 | 1011.1 |
| 20260905214504 | 36 | 27 | 14.5 | 24.1 | 0.00 | 0.00 | 0.00 | 42 | 1011.1 |
| 20260905214007 | 37 | 50 | 12.9 | 27.4 | 0.00 | 0.00 | 0.00 | 42 | 1011.2 |
| 20260905213504 | 37 | 32 | 12.9 | 27.4 | 0.00 | 0.00 | 0.00 | 41 | 1011.2 |
| 20260905213007 | 37 | 42 | 8.0 | 24.1 | 0.00 | 0.00 | 0.00 | 40 | 1011.2 |
| 20260905212504 | 38 | 16 | 8.0 | 24.1 | 0.00 | 0.00 | 0.00 | 40 | 1011.3 |
| 20260905212006 | 37 | 11 | 8.0 | 16.1 | 0.00 | 0.00 | 0.00 | 41 | 1011.3 |
| 20260905211504 | 37 | 322 | 8.0 | 16.1 | 0.00 | 0.00 | 0.00 | 40 | 1011.3 |
| 20260905210504 | 37 | 310 | 8.0 | 14.5 | 0.00 | 0.00 | 0.00 | 39 | 1011.4 |
| 20260905210004 | 37 | 9 | 9.7 | 19.3 | 0.00 | 0.00 | 0.00 | 41 | 1011.4 |
| 20260905205503 | 37 | 32 | 9.7 | 22.5 | 0.00 | 0.00 | 0.00 | 40 | 1011.6 |
| 20260905205006 | 37 | 19 | 9.7 | 22.5 | 0.00 | 0.00 | 0.00 | 42 | 1011.6 |
| 20260905204007 | 37 | 44 | 9.7 | 19.3 | 0.00 | 0.00 | 0.00 | 39 | 1011.7 |
| 20260905203503 | 38 | 325 | 9.7 | 22.5 | 0.00 | 0.00 | 0.00 | 41 | 1011.7 |
| 20260905203006 | 37 | 313 | 9.7 | 22.5 | 0.00 | 0.00 | 0.00 | 39 | 1011.7 |
| 20260905202504 | 37 | 2 | 9.7 | 20.9 | 0.00 | 0.00 | 0.00 | 38 | 1011.8 |
| 20260905202006 | 37 | 307 | 9.7 | 19.3 | 0.00 | 0.00 | 0.00 | 40 | 1011.8 |
| 20260905201006 | 37 | 311 | 8.0 | 19.3 | 0.00 | 0.00 | 0.00 | 40 | 1012.0 |
| 20260905200004 | 37 | 306 | 9.7 | 19.3 | 0.00 | 0.00 | 0.00 | 40 | 1012.0 |
| 20260905195006 | 37 | 301 | 8.0 | 19.3 | 0.00 | 0.00 | 0.00 | 41 | 1012.2 |
| 20260905194503 | 37 | 315 | 8.0 | 20.9 | 0.00 | 0.00 | 0.00 | 41 | 1012.2 |
| 20260905194006 | 37 | 292 | 9.7 | 20.9 | 0.00 | 0.00 | 0.00 | 42 | 1012.5 |
| 20260905193504 | 37 | 308 | 9.7 | 20.9 | 0.00 | 0.00 | 0.00 | 41 | 1012.5 |
| 20260905193007 | 37 | 288 | 9.7 | 20.9 | 0.00 | 0.00 | 0.00 | 43 | 1012.5 |
| 20260905192504 | 37 | 13 | 9.7 | 16.1 | 0.00 | 0.00 | 0.00 | 43 | 1012.6 |
| 20260905191504 | 37 | 358 | 9.7 | 24.1 | 0.00 | 0.00 | 0.00 | 43 | 1012.6 |
| 20260905191006 | 36 | 38 | 8.0 | 24.1 | 0.00 | 0.00 | 0.00 | 45 | 1012.8 |
| 20260905190503 | 36 | 244 | 8.0 | 14.5 | 0.00 | 0.00 | 0.00 | 49 | 1012.8 |
| 20260905190003 | 37 | 307 | 8.0 | 19.3 | 0.00 | 0.00 | 0.00 | 43 | 1012.8 |
| 20260905185504 | 37 | 243 | 8.0 | 22.5 | 0.00 | 0.00 | 0.00 | 41 | 1012.9 |
| 20260905185006 | 37 | 298 | 9.7 | 22.5 | 0.00 | 0.00 | 0.00 | 44 | 1012.9 |
| 20260905184503 | 37 | 321 | 9.7 | 16.1 | 0.00 | 0.00 | 0.00 | 45 | 1012.9 |
| 20260905183503 | 37 | 20 | 11.3 | 20.9 | 0.00 | 0.00 | 0.00 | 46 | 1013.0 |
| 20260905183007 | 37 | 40 | 9.7 | 20.9 | 0.00 | 0.00 | 0.00 | 45 | 1013.0 |
| 20260905182503 | 37 | 29 | 9.7 | 20.9 | 0.00 | 0.00 | 0.00 | 47 | 1013.2 |
| 20260905182007 | 36 | 320 | 9.7 | 22.5 | 0.00 | 0.00 | 0.00 | 47 | 1013.2 |
| 20260905181503 | 36 | 318 | 9.7 | 22.5 | 0.00 | 0.00 | 0.00 | 46 | 1013.2 |
| 20260905181007 | 36 | 23 | 8.0 | 16.1 | 0.00 | 0.00 | 0.00 | 46 | 1013.3 |
| 20260905180504 | 36 | 4 | 8.0 | 12.9 | 0.00 | 0.00 | 0.00 | 47 | 1013.3 |
| 20260905180004 | 36 | 296 | 9.7 | 16.1 | 0.00 | 0.00 | 0.00 | 49 | 1013.3 |
| 20260905175504 | 36 | 353 | 9.7 | 16.1 | 0.00 | 0.00 | 0.00 | 49 | 1013.4 |
| 20260905175006 | 36 | 6 | 8.0 | 19.3 | 0.00 | 0.00 | 0.00 | 48 | 1013.4 |
| 20260905174503 | 36 | 334 | 8.0 | 19.3 | 0.00 | 0.00 | 0.00 | 49 | 1013.4 |
| 20260905174007 | 36 | 256 | 8.0 | 14.5 | 0.00 | 0.00 | 0.00 | 52 | 1013.5 |
| 20260905173504 | 36 | 266 | 8.0 | 14.5 | 0.00 | 0.00 | 0.00 | 49 | 1013.5 |
| 20260905173006 | 35 | 314 | 4.8 | 12.9 | 0.00 | 0.00 | 0.00 | 50 | 1013.5 |
| 20260905172503 | 35 | 300 | 4.8 | 11.3 | 0.00 | 0.00 | 0.00 | 50 | 1013.7 |
| 20260905172007 | 35 | 281 | 8.0 | 11.3 | 0.00 | 0.00 | 0.00 | 50 | 1013.7 |
| 20260905171504 | 35 | 273 | 8.0 | 11.3 | 0.00 | 0.00 | 0.00 | 50 | 1013.7 |
| 20260905171007 | 35 | 354 | 8.0 | 14.5 | 0.00 | 0.00 | 0.00 | 52 | 1014.0 |
| 20260905170004 | 35 | 309 | 8.0 | 14.5 | 0.00 | 0.00 | 0.00 | 53 | 1014.0 |
| 20260905165503 | 35 | 310 | 8.0 | 12.9 | 0.00 | 0.00 | 0.00 | 54 | 1014.1 |
| 20260905165006 | 35 | 299 | 8.0 | 14.5 | 0.00 | 0.00 | 0.00 | 54 | 1014.1 |
| 20260905164503 | 34 | 332 | 8.0 | 14.5 | 0.00 | 0.00 | 0.00 | 55 | 1014.1 |
| 20260905164007 | 34 | 3 | 8.0 | 14.5 | 0.00 | 0.00 | 0.00 | 55 | 1014.2 |
| 20260905163504 | 34 | 319 | 8.0 | 16.1 | 0.00 | 0.00 | 0.00 | 54 | 1014.2 |
| 20260905163007 | 34 | 350 | 8.0 | 16.1 | 0.00 | 0.00 | 0.00 | 55 | 1014.2 |
| 20260905162503 | 34 | 285 | 8.0 | 14.5 | 0.00 | 0.00 | 0.00 | 56 | 1014.2 |
| 20260905162006 | 33 | 292 | 8.0 | 14.5 | 0.00 | 0.00 | 0.00 | 56 | 1014.2 |
| 20260905161503 | 33 | 315 | 8.0 | 16.1 | 0.00 | 0.00 | 0.00 | 58 | 1014.2 |
| 20260905161007 | 33 | 320 | 9.7 | 16.1 | 0.00 | 0.00 | 0.00 | 57 | 1014.3 |
| 20260905160504 | 33 | 281 | 9.7 | 16.1 | 0.00 | 0.00 | 0.00 | 58 | 1014.3 |
| 20260905160004 | 33 | 283 | 9.7 | 20.9 | 0.00 | 0.00 | 0.00 | 62 | 1014.3 |
| 20260905155504 | 33 | 301 | 9.7 | 20.9 | 0.00 | 0.00 | 0.00 | 60 | 1014.4 |
| 20260905154503 | 32 | 325 | 8.0 | 14.5 | 0.00 | 0.00 | 0.00 | 62 | 1014.4 |
| 20260905154007 | 32 | 303 | 8.0 | 14.5 | 0.00 | 0.00 | 0.00 | 61 | 1014.3 |
| 20260905153504 | 32 | 310 | 8.0 | 14.5 | 0.00 | 0.00 | 0.00 | 63 | 1014.3 |
| 20260905153006 | 32 | 293 | 9.7 | 12.9 | 0.00 | 0.00 | 0.00 | 62 | 1014.3 |
| 20260905152007 | 31 | 308 | 8.0 | 16.1 | 0.00 | 0.00 | 0.00 | 65 | 1014.3 |
| 20260905151503 | 31 | 302 | 6.4 | 14.5 | 0.00 | 0.00 | 0.00 | 67 | 1014.3 |
| 20260905151007 | 30 | 311 | 3.2 | 12.9 | 0.00 | 0.00 | 0.00 | 69 | 1014.4 |
| 20260905150004 | 30 | 333 | 4.8 | 11.3 | 0.00 | 0.00 | 0.00 | 68 | 1014.4 |
| 20260905145006 | 30 | 299 | 8.0 | 12.9 | 0.00 | 0.00 | 0.00 | 68 | 1014.3 |
| 20260905144504 | 30 | 241 | 8.0 | 14.5 | 0.00 | 0.00 | 0.00 | 66 | 1014.3 |
| 20260905144006 | 30 | 277 | 8.0 | 14.5 | 0.00 | 0.00 | 0.00 | 68 | 1014.3 |
| 20260905143504 | 30 | 300 | 8.0 | 14.5 | 0.00 | 0.00 | 0.00 | 68 | 1014.3 |
| 20260905143007 | 30 | 300 | 9.7 | 16.1 | 0.00 | 0.00 | 0.00 | 67 | 1014.3 |
| 20260905142503 | 30 | 315 | 9.7 | 16.1 | 0.00 | 0.00 | 0.00 | 67 | 1014.3 |
| 20260905142006 | 30 | 297 | 8.0 | 16.1 | 0.00 | 0.00 | 0.00 | 71 | 1014.3 |
| 20260905141504 | 30 | 314 | 8.0 | 12.9 | 0.00 | 0.00 | 0.00 | 71 | 1014.3 |
| 20260905141006 | 29 | 311 | 8.0 | 12.9 | 0.00 | 0.00 | 0.00 | 71 | 1014.3 |
| 20260905140504 | 29 | 312 | 6.4 | 12.9 | 0.00 | 0.00 | 0.00 | 73 | 1014.3 |
| 20260905140004 | 28 | 329 | 4.8 | 11.3 | 0.00 | 0.00 | 0.00 | 74 | 1014.3 |
| 20260905135503 | 28 | 307 | 4.8 | 9.7 | 0.00 | 0.00 | 0.00 | 76 | 1014.2 |
| 20260905135006 | 28 | 263 | 3.2 | 9.7 | 0.00 | 0.00 | 0.00 | 75 | 1014.2 |
| 20260905134503 | 28 | 291 | 3.2 | 9.7 | 0.00 | 0.00 | 0.00 | 78 | 1014.2 |
| 20260905134006 | 27 | 270 | 3.2 | 9.7 | 0.00 | 0.00 | 0.00 | 79 | 1014.1 |
| 20260905133504 | 27 | 270 | 3.2 | 9.7 | 0.00 | 0.00 | 0.00 | 81 | 1014.1 |
| 20260905133006 | 27 | 260 | 3.2 | 9.7 | 0.00 | 0.00 | 0.00 | 81 | 1014.1 |
| 20260905132503 | 26 | 244 | 3.2 | 8.0 | 0.00 | 0.00 | 0.00 | 84 | 1014.0 |
| 20260905132007 | 26 | 268 | 3.2 | 8.0 | 0.00 | 0.00 | 0.00 | 84 | 1014.0 |
| 20260905131504 | 26 | 218 | 3.2 | 8.0 | 0.00 | 0.00 | 0.00 | 86 | 1014.0 |
| 20260905131007 | 26 | 177 | 3.2 | 8.0 | 0.00 | 0.00 | 0.00 | 87 | 1014.0 |
| 20260905130004 | 25 | 302 | 0.0 | 4.8 | 0.00 | 0.00 | 0.00 | 88 | 1014.0 |
| 20260905125504 | 25 | 303 | 0.0 | 4.8 | 0.00 | 0.00 | 0.00 | 89 | 1013.9 |
| 20260905125006 | 25 | 172 | 1.6 | 3.2 | 0.00 | 0.00 | 0.00 | 90 | 1013.9 |
| 20260905124503 | 24 | 172 | 1.6 | 3.2 | 0.00 | 0.00 | 0.00 | 90 | 1013.9 |
| 20260905124007 | 24 | 172 | 1.6 | 3.2 | 0.00 | 0.00 | 0.00 | 90 | 1013.7 |
| 20260905123504 | 24 | 169 | 1.6 | 4.8 | 0.00 | 0.00 | 0.00 | 90 | 1013.7 |
| 20260905123006 | 24 | 207 | 0.0 | 4.8 | 0.00 | 0.00 | 0.00 | 90 | 1013.7 |
| 20260905122007 | 23 | 358 | 0.0 | 3.2 | 0.00 | 0.00 | 0.00 | 90 | 1013.7 |
| 20260905121504 | 23 | 358 | 0.0 | 3.2 | 0.00 | 0.00 | 0.00 | 90 | 1013.7 |
| 20260905121006 | 23 | 358 | 0.0 | 3.2 | 0.00 | 0.00 | 0.00 | 90 | 1013.5 |
| 20260905120504 | 23 | 194 | 0.0 | 3.2 | 0.00 | 0.00 | 0.00 | 90 | 1013.5 |
| 20260905120003 | 23 | 201 | 0.0 | 0.0 | 0.00 | 0.00 | 0.00 | 90 | 1013.5 |
| 20260905115504 | 24 | 201 | 0.0 | 0.0 | 0.00 | 0.00 | 0.00 | 90 | 1013.3 |
| 20260905115007 | 24 | 201 | 0.0 | 0.0 | 0.00 | 0.00 | 0.00 | 90 | 1013.3 |
| 20260905114504 | 24 | 201 | 0.0 | 3.2 | 0.00 | 0.00 | 0.00 | 90 | 1013.3 |
| 20260905114007 | 24 | 201 | 0.0 | 3.2 | 0.00 | 0.00 | 0.00 | 90 | 1013.3 |
| 20260905113504 | 24 | 201 | 0.0 | 3.2 | 0.00 | 0.00 | 0.00 | 90 | 1013.3 |
| 20260905113007 | 24 | 202 | 0.0 | 3.2 | 0.00 | 0.00 | 0.00 | 90 | 1013.3 |
| 20260905112504 | 24 | 203 | 0.0 | 4.8 | 0.00 | 0.00 | 0.00 | 90 | 1013.2 |
| 20260905112007 | 24 | 203 | 1.6 | 4.8 | 0.00 | 0.00 | 0.00 | 90 | 1013.2 |
| 20260905111006 | 24 | 206 | 0.0 | 4.8 | 0.00 | 0.00 | 0.00 | 90 | 1013.1 |
| 20260905110503 | 24 | 207 | 0.0 | 3.2 | 0.00 | 0.00 | 0.00 | 90 | 1013.1 |
| 20260905105504 | 24 | 207 | 1.6 | 3.2 | 0.00 | 0.00 | 0.00 | 90 | 1013.2 |
| 20260905104504 | 24 | 207 | 1.6 | 3.2 | 0.00 | 0.00 | 0.00 | 89 | 1013.2 |
| 20260905104007 | 24 | 206 | 1.6 | 4.8 | 0.00 | 0.00 | 0.00 | 89 | 1013.2 |
| 20260905103503 | 24 | 205 | 1.6 | 4.8 | 0.00 | 0.00 | 0.00 | 89 | 1013.2 |
| 20260905103007 | 25 | 204 | 1.6 | 3.2 | 0.00 | 0.00 | 0.00 | 89 | 1013.2 |
| 20260905102504 | 25 | 201 | 1.6 | 3.2 | 0.00 | 0.00 | 0.00 | 89 | 1013.2 |
| 20260905102007 | 25 | 200 | 0.0 | 3.2 | 0.00 | 0.00 | 0.00 | 89 | 1013.2 |
| 20260905101007 | 25 | 199 | 0.0 | 3.2 | 0.00 | 0.00 | 0.00 | 89 | 1013.4 |
| 20260905100503 | 25 | 198 | 0.0 | 3.2 | 0.00 | 0.00 | 0.00 | 89 | 1013.4 |
| 20260905100004 | 25 | 199 | 0.0 | 3.2 | 0.00 | 0.00 | 0.00 | 88 | 1013.4 |
| 20260905095504 | 24 | 199 | 0.0 | 3.2 | 0.00 | 0.00 | 0.00 | 89 | 1013.2 |
| 20260905095007 | 24 | 199 | 0.0 | 3.2 | 0.00 | 0.00 | 0.00 | 89 | 1013.2 |
| 20260905094504 | 24 | 199 | 0.0 | 3.2 | 0.00 | 0.00 | 0.00 | 89 | 1013.2 |
| 20260905094007 | 24 | 199 | 0.0 | 3.2 | 0.00 | 0.00 | 0.00 | 89 | 1013.1 |
| 20260905092503 | 24 | 199 | 3.2 | 8.0 | 0.00 | 0.00 | 0.00 | 89 | 1013.1 |
| 20260905092007 | 24 | 196 | 3.2 | 8.0 | 0.00 | 0.00 | 0.00 | 90 | 1013.1 |
| 20260905091504 | 24 | 193 | 3.2 | 8.0 | 0.00 | 0.00 | 0.00 | 90 | 1013.1 |
| 20260905091007 | 24 | 188 | 3.2 | 4.8 | 0.00 | 0.00 | 0.00 | 89 | 1013.1 |
| 20260905090504 | 24 | 235 | 3.2 | 4.8 | 0.00 | 0.00 | 0.00 | 89 | 1013.1 |
| 20260905090004 | 24 | 236 | 1.6 | 4.8 | 0.00 | 0.00 | 0.00 | 89 | 1013.1 |
| 20260905085504 | 25 | 236 | 1.6 | 3.2 | 0.00 | 0.00 | 0.00 | 89 | 1013.1 |
| 20260905085012 | 25 | 236 | 0.0 | 3.2 | 0.00 | 0.00 | 0.00 | 88 | 1013.1 |
| 20260905084504 | 25 | 237 | 0.0 | 3.2 | 0.00 | 0.00 | 0.00 | 88 | 1013.1 |
| 20260905084007 | 25 | 236 | 0.0 | 3.2 | 0.00 | 0.00 | 0.00 | 88 | 1013.2 |
| 20260905083503 | 25 | 237 | 0.0 | 3.2 | 0.00 | 0.00 | 0.00 | 88 | 1013.2 |
| 20260905082504 | 25 | 237 | 1.6 | 3.2 | 0.00 | 0.00 | 0.00 | 87 | 1013.3 |
| 20260905082007 | 25 | 237 | 1.6 | 3.2 | 0.00 | 0.00 | 0.00 | 87 | 1013.3 |
| 20260905081503 | 25 | 238 | 1.6 | 3.2 | 0.00 | 0.00 | 0.00 | 87 | 1013.3 |
| 20260905080504 | 25 | 239 | 1.6 | 3.2 | 0.00 | 0.00 | 0.00 | 87 | 1013.5 |
| 20260905080004 | 25 | 242 | 0.0 | 3.2 | 0.00 | 0.00 | 0.00 | 87 | 1013.5 |
| 20260905075504 | 25 | 243 | 0.0 | 3.2 | 0.00 | 0.00 | 0.00 | 86 | 1013.4 |
| 20260905075007 | 25 | 244 | 3.2 | 3.2 | 0.00 | 0.00 | 0.00 | 87 | 1013.4 |
| 20260905074504 | 25 | 244 | 3.2 | 3.2 | 0.00 | 0.00 | 0.00 | 87 | 1013.4 |
| 20260905074007 | 25 | 241 | 0.0 | 3.2 | 0.00 | 0.00 | 0.00 | 87 | 1013.5 |
| 20260905073504 | 25 | 237 | 0.0 | 3.2 | 0.00 | 0.00 | 0.00 | 87 | 1013.5 |
| 20260905073006 | 25 | 236 | 1.6 | 3.2 | 0.00 | 0.00 | 0.00 | 87 | 1013.5 |
| 20260905072007 | 25 | 236 | 1.6 | 3.2 | 0.00 | 0.00 | 0.00 | 88 | 1013.4 |
| 20260905070503 | 25 | 184 | 0.0 | 1.6 | 0.00 | 0.00 | 0.00 | 88 | 1013.6 |
| 20260905070004 | 25 | 184 | 0.0 | 3.2 | 0.00 | 0.00 | 0.00 | 88 | 1013.6 |
| 20260905065504 | 25 | 184 | 0.0 | 3.2 | 0.00 | 0.00 | 0.00 | 88 | 1013.6 |
| 20260905065007 | 25 | 184 | 0.0 | 3.2 | 0.00 | 0.00 | 0.00 | 88 | 1013.6 |
| 20260905064006 | 25 | 184 | 0.0 | 3.2 | 0.00 | 0.00 | 0.00 | 87 | 1013.6 |
| 20260905063503 | 25 | 184 | 0.0 | 3.2 | 0.00 | 0.00 | 0.00 | 87 | 1013.6 |
| 20260905063008 | 25 | 184 | 1.6 | 3.2 | 0.00 | 0.00 | 0.00 | 87 | 1013.6 |
| 20260905062504 | 25 | 184 | 1.6 | 4.8 | 0.00 | 0.00 | 0.00 | 87 | 1013.7 |
| 20260905062007 | 25 | 183 | 0.0 | 4.8 | 0.00 | 0.00 | 0.00 | 86 | 1013.7 |
| 20260905061504 | 25 | 192 | 0.0 | 3.2 | 0.00 | 0.00 | 0.00 | 86 | 1013.7 |
| 20260905061007 | 25 | 190 | 0.0 | 3.2 | 0.00 | 0.00 | 0.00 | 86 | 1013.9 |
| 20260905060504 | 25 | 190 | 0.0 | 3.2 | 0.00 | 0.00 | 0.00 | 86 | 1013.9 |
| 20260905055503 | 25 | 190 | 0.0 | 0.0 | 0.00 | 0.00 | 0.00 | 85 | 1013.8 |
| 20260905055007 | 25 | 190 | 0.0 | 1.6 | 0.00 | 0.00 | 0.00 | 85 | 1013.8 |
| 20260905054503 | 25 | 190 | 0.0 | 1.6 | 0.00 | 0.00 | 0.00 | 85 | 1013.8 |
| 20260905054006 | 25 | 190 | 0.0 | 3.2 | 0.00 | 0.00 | 0.00 | 86 | 1013.9 |
| 20260905053504 | 25 | 190 | 0.0 | 3.2 | 0.00 | 0.00 | 0.00 | 86 | 1013.9 |
| 20260905053007 | 25 | 190 | 3.2 | 3.2 | 0.00 | 0.00 | 0.00 | 86 | 1013.9 |
| 20260905052503 | 25 | 190 | 3.2 | 4.8 | 0.00 | 0.00 | 0.00 | 85 | 1013.8 |
| 20260905052006 | 25 | 190 | 3.2 | 4.8 | 0.00 | 0.00 | 0.00 | 85 | 1013.8 |
| 20260905051504 | 25 | 189 | 3.2 | 4.8 | 0.00 | 0.00 | 0.00 | 85 | 1013.8 |
| 20260905051007 | 25 | 186 | 3.2 | 8.0 | 0.00 | 0.00 | 0.00 | 84 | 1013.7 |
| 20260905050504 | 25 | 184 | 3.2 | 8.0 | 0.00 | 0.00 | 0.00 | 85 | 1013.7 |
| 20260905045503 | 25 | 200 | 1.6 | 4.8 | 0.00 | 0.00 | 0.00 | 85 | 1013.7 |
| 20260905044504 | 26 | 200 | 1.6 | 4.8 | 0.00 | 0.00 | 0.00 | 85 | 1013.7 |
| 20260905044007 | 26 | 200 | 1.6 | 4.8 | 0.00 | 0.00 | 0.00 | 85 | 1013.6 |
| 20260905043504 | 26 | 200 | 1.6 | 3.2 | 0.00 | 0.00 | 0.00 | 86 | 1013.6 |
| 20260905043006 | 26 | 212 | 1.6 | 3.2 | 0.00 | 0.00 | 0.00 | 85 | 1013.6 |
| 20260905042503 | 26 | 212 | 1.6 | 3.2 | 0.00 | 0.00 | 0.00 | 84 | 1013.5 |
| 20260905041504 | 26 | 212 | 1.6 | 8.0 | 0.00 | 0.00 | 0.00 | 84 | 1013.5 |
| 20260905041007 | 26 | 237 | 3.2 | 3.2 | 0.00 | 0.00 | 0.00 | 84 | 1013.6 |
| 20260905040503 | 26 | 238 | 3.2 | 4.8 | 0.00 | 0.00 | 0.00 | 83 | 1013.6 |
| 20260905040003 | 26 | 238 | 1.6 | 4.8 | 0.00 | 0.00 | 0.00 | 84 | 1013.6 |
| 20260905035503 | 26 | 238 | 1.6 | 3.2 | 0.00 | 0.00 | 0.00 | 84 | 1013.6 |
| 20260905035006 | 26 | 238 | 1.6 | 3.2 | 0.00 | 0.00 | 0.00 | 84 | 1013.6 |
| 20260905033504 | 26 | 238 | 0.0 | 3.2 | 0.00 | 0.00 | 0.00 | 83 | 1013.8 |
| 20260905033007 | 26 | 238 | 0.0 | 3.2 | 0.00 | 0.00 | 0.00 | 82 | 1013.8 |
| 20260905032504 | 26 | 238 | 0.0 | 3.2 | 0.00 | 0.00 | 0.00 | 82 | 1013.8 |
| 20260905032007 | 26 | 238 | 0.0 | 3.2 | 0.00 | 0.00 | 0.00 | 82 | 1013.8 |
| 20260905031504 | 26 | 238 | 0.0 | 3.2 | 0.00 | 0.00 | 0.00 | 82 | 1013.8 |
| 20260905031007 | 27 | 238 | 0.0 | 3.2 | 0.00 | 0.00 | 0.00 | 82 | 1013.7 |
| 20260905030503 | 27 | 117 | 0.0 | 1.6 | 0.00 | 0.00 | 0.00 | 82 | 1013.7 |
| 20260905030004 | 27 | 117 | 0.0 | 1.6 | 0.00 | 0.00 | 0.00 | 82 | 1013.7 |
| 20260905025504 | 27 | 117 | 0.0 | 0.0 | 0.00 | 0.00 | 0.00 | 81 | 1013.7 |
| 20260905025006 | 27 | 117 | 0.0 | 0.0 | 0.00 | 0.00 | 0.00 | 80 | 1013.7 |
| 20260905024504 | 27 | 117 | 0.0 | 0.0 | 0.00 | 0.00 | 0.00 | 80 | 1013.7 |
| 20260905024006 | 27 | 117 | 0.0 | 0.0 | 0.00 | 0.00 | 0.00 | 80 | 1013.6 |
| 20260905023504 | 27 | 117 | 0.0 | 0.0 | 0.00 | 0.00 | 0.00 | 80 | 1013.6 |
| 20260905023007 | 27 | 117 | 0.0 | 0.0 | 0.00 | 0.00 | 0.00 | 79 | 1013.6 |